User: anonymous   Login
Location: Unspecified
(0.0000°N, 0.0000°E)
Time: 18:02:56
(UTC+01:00)
Language:

ATLAS 5 CENTAUR R/B - Orbit

View from above orbital plane
View from above orbital plane
View from above satellite
View from above satellite

Ground track
Ground track

The orbit data is extracted from the following two-line orbital elements,

1 31702U 07027B   17016.74992692 0.00000170  00000-0  59656-4 0    08
2 31702  63.3692 304.0805 0252315   2.7042 357.2958 14.18536370    04
Epoch (UTC): 16 January 2017 17:59:53
Eccentricity: 0.0252315
inclination: 63.3692°
perigee height: 648 km
apogee height: 1012 km
right ascension of ascending node: 304.0805°
argument of perigee: 2.7042°
revolutions per day: 14.18536370
mean anomaly at epoch: 357.2958°
orbit number at epoch: 0

The dashed part of the orbit path shows where the satellite is in the earth's shadow,  

DLR